GFSMA_850_thetae_021.txt.gz
Theta_e
329 329 329 327 328 326 328 327 325 311 305 302 302 304 304 305 306 307 307 307 307 308 308 307 307 306 306 305 306 309 309 313 309 308 307 306 309 307 307 308 309 311 311
328 325 327 327 327 326 325 324 323 320 308 304 302 302 303 304 305 306 307 307 307 307 307 307 307 306 305 310 309 315 318 317 311 310 305 305 305 307 310 311 306 305 305
327 327 326 326 326 325 325 326 325 322 317 307 304 302 302 303 304 305 306 306 306 306 306 307 306 305 305 312 314 318 318 317 314 311 307 305 306 307 307 307 305 305 305
327 327 326 325 324 324 324 323 323 323 322 316 308 305 302 302 302 303 304 305 305 305 305 306 306 306 304 304 314 313 315 314 314 311 308 305 306 309 309 306 305 305 304
323 324 325 325 324 323 323 323 324 321 321 320 312 308 305 303 302 302 304 305 305 305 305 305 305 305 305 304 311 314 313 316 313 311 307 305 303 304 304 303 303 303 303
323 324 323 324 324 324 325 326 323 320 318 319 315 312 309 307 304 301 302 303 304 304 305 304 304 304 304 304 304 308 315 315 313 311 304 302 301 302 302 302 302 301 301
319 320 320 320 320 320 318 317 318 317 316 315 315 314 313 311 308 303 301 301 302 303 303 304 303 303 303 303 303 305 309 314 313 310 306 300 300 299 299 299 300 300 299
316 316 317 317 316 316 316 315 315 314 314 313 313 312 310 310 310 307 303 301 301 301 302 302 302 302 302 302 302 301 302 305 311 310 307 300 299 298 298 298 298 298 299
312 313 313 313 313 313 312 312 312 311 310 310 310 308 306 303 302 300 300 300 300 300 300 301 301 302 301 301 301 301 300 300 306 310 308 299 298 297 296 296 297 297 298
304 306 308 309 309 308 309 308 308 308 307 307 306 306 305 304 302 302 303 302 299 299 299 300 300 300 300 301 301 300 300 298 298 306 304 299 297 296 295 295 295 296 296
300 300 300 300 301 301 302 304 305 305 305 305 304 304 302 301 300 299 298 300 301 300 299 298 299 299 300 300 300 300 300 298 297 297 299 298 297 296 295 294 295 295 296
297 297 296 296 296 297 298 298 298 298 300 302 303 303 302 300 299 298 297 297 298 299 298 298 298 298 299 299 300 300 299 299 298 297 297 297 297 296 295 294 294 296 299
292 291 290 290 290 290 290 290 291 294 296 296 297 299 300 300 301 300 299 298 297 299 299 299 299 298 298 299 299 299 299 298 297 297 297 297 296 295 295 294 294 294 296
289 289 289 288 288 288 288 288 288 287 287 288 289 292 295 295 296 298 299 298 297 298 297 298 300 300 298 298 299 299 299 298 298 297 297 296 296 295 294 293 293 293 294
288 288 288 288 288 288 287 287 287 287 287 287 287 287 287 287 290 294 294 296 296 294 296 297 296 298 299 299 297 297 298 298 298 296 296 296 296 295 294 293 293 293 293
287 287 287 287 287 287 287 286 286 286 286 287 286 286 286 286 286 286 287 291 294 294 294 296 297 296 297 297 297 297 297 297 297 297 296 296 296 296 294 294 292 292 293
287 287 287 287 287 286 286 286 286 286 286 286 286 286 286 286 286 286 286 286 286 288 292 293 294 295 296 296 297 297 296 296 296 296 297 296 296 295 294 293 292 292 292
286 286 286 286 285 285 285 285 285 285 285 285 285 285 285 285 285 285 285 285 285 285 285 285 286 291 295 295 295 296 297 296 296 296 296 296 296 296 295 293 292 291 292
286 286 285 285 285 285 285 284 284 284 284 284 284 284 285 284 284 284 284 284 284 285 285 284 285 286 287 290 294 294 294 296 296 296 296 296 296 295 295 294 292 291 291
285 285 285 284 284 284 283 283 283 283 283 284 284 284 284 284 284 283 283 284 284 284 284 284 284 285 285 286 287 293 294 293 294 295 296 296 296 295 295 294 293 291 290
285 284 284 284 284 283 283 283 283 283 283 283 282 282 282 282 282 282 281 281 282 282 283 284 284 284 284 285 286 286 290 293 294 294 294 295 295 295 295 295 294 293 291
284 283 283 283 283 283 283 282 281 281 281 280 280 279 277 277 277 277 278 279 280 281 282 283 285 285 285 286 286 286 286 289 291 293 293 294 294 294 295 295 295 295 292
283 282 282 282 283 282 282 281 280 278 278 277 275 274 274 274 273 274 274 275 276 278 279 281 283 284 285 286 286 287 287 287 287 291 291 292 294 294 295 295 294 294 294
282 282 282 282 282 281 280 279 277 276 275 274 273 272 271 271 271 271 272 272 273 274 275 275 278 282 283 284 286 287 287 288 288 289 290 290 291 294 294 294 294 294 293
281 282 281 281 280 280 278 277 274 273 273 272 270 270 270 270 270 271 273 273 273 273 274 275 276 277 279 282 284 285 287 288 288 288 289 289 289 289 290 292 293 294 294
281 281 280 279 279 278 277 274 272 270 269 269 269 270 270 270 271 273 273 273 273 273 272 273 274 275 277 278 281 284 285 287 287 287 288 288 289 289 288 290 291 291 293

GFSMA_850_thetae_024.txt.gz
Theta_e
329 328 326 327 327 326 326 325 324 323 323 311 304 302 302 304 304 305 306 306 306 307 307 307 307 307 307 306 307 310 309 313 309 310 309 307 307 308 308 307 307 307 307
328 328 327 325 324 327 326 324 323 324 322 321 311 305 302 302 303 304 305 306 306 306 307 307 307 307 306 307 308 312 318 318 315 311 310 307 305 308 309 313 309 306 307
326 326 327 325 325 324 323 322 325 323 322 322 319 312 306 303 302 303 303 304 306 306 306 306 306 306 306 306 312 315 318 318 315 313 311 308 307 308 308 308 306 305 305
328 327 327 328 327 324 323 322 322 321 321 320 319 320 314 308 304 301 302 303 304 305 305 306 306 305 305 305 306 315 318 317 314 313 311 307 306 307 310 311 307 306 305
324 325 325 325 326 326 325 323 323 323 324 321 319 317 317 313 309 306 302 301 302 303 304 304 305 304 304 304 304 307 319 315 316 315 312 306 303 303 304 304 304 303 304
321 322 323 323 323 323 322 322 320 320 319 318 317 316 315 315 314 313 309 306 301 301 302 303 303 303 303 303 303 304 317 314 314 314 312 307 302 301 301 301 302 301 301
317 318 318 318 318 318 318 317 316 316 316 315 315 314 314 314 314 314 313 311 307 303 300 301 301 302 302 302 302 302 309 313 313 314 313 309 303 300 299 299 299 299 300
315 315 315 315 315 315 315 314 313 313 313 312 311 311 310 310 310 305 302 302 301 300 301 300 300 301 301 301 301 301 302 305 312 314 314 311 304 299 298 298 298 300 301
310 310 309 309 310 311 311 310 310 309 309 309 309 307 305 303 306 307 307 307 307 304 299 299 299 299 299 300 300 300 300 300 301 305 311 313 309 301 298 297 297 297 299
303 302 302 302 302 302 304 306 307 306 305 306 306 306 304 302 300 301 303 305 307 307 306 304 300 299 298 299 299 299 299 299 299 299 301 309 311 304 298 297 296 296 299
299 299 299 298 298 298 298 299 299 299 300 302 302 303 303 303 303 300 300 301 303 305 305 305 304 303 301 299 298 299 299 299 298 298 298 300 308 304 302 298 296 295 296
294 294 293 292 292 291 290 290 290 291 293 295 296 297 298 298 299 299 298 300 300 301 302 304 305 305 305 302 299 298 298 299 298 298 297 297 299 300 300 300 297 294 297
292 291 290 289 289 289 289 288 288 288 288 288 287 288 289 291 293 294 294 295 295 296 297 298 300 302 304 304 305 301 298 298 299 298 297 297 296 297 298 299 297 295 294
290 289 289 288 288 288 287 287 287 287 287 287 287 286 287 286 286 286 286 288 291 293 294 295 296 297 299 301 302 303 302 298 298 297 297 296 296 296 296 297 297 295 294
289 288 288 288 287 287 287 287 287 287 287 286 286 286 286 286 286 286 286 285 285 287 287 289 291 294 296 296 297 299 301 302 298 296 297 296 295 295 295 295 295 294 294
287 287 287 287 286 286 286 286 286 286 286 286 286 286 286 286 286 286 285 285 285 284 285 287 288 287 288 290 295 296 297 299 301 297 296 296 296 295 295 294 294 294 294
287 286 286 286 285 285 285 285 285 286 286 286 286 286 286 285 285 285 285 285 284 284 283 284 286 287 287 287 288 289 295 297 298 300 298 295 295 296 296 295 295 294 294
287 286 286 285 285 285 285 285 285 285 285 285 285 285 285 285 285 285 285 284 284 284 284 283 284 285 286 287 287 287 287 289 296 297 299 299 296 295 295 296 296 295 294
287 286 286 285 285 284 285 285 284 284 284 284 284 284 284 284 284 284 284 283 283 284 284 283 283 284 285 285 286 286 286 287 288 293 297 298 299 296 295 295 295 295 295
287 286 285 285 284 284 284 284 283 283 284 284 283 283 282 281 281 281 281 281 281 281 281 281 282 282 283 284 285 285 285 286 286 287 289 295 296 298 297 296 295 294 295
287 286 285 284 283 283 283 283 283 283 283 283 283 282 280 279 277 277 276 278 277 278 278 279 280 281 282 283 284 285 285 285 285 286 286 288 294 296 297 296 295 294 294
287 285 284 283 283 283 282 282 282 282 282 282 281 280 279 277 276 274 274 274 275 277 277 278 279 280 281 282 284 284 285 285 286 286 287 287 288 293 297 297 296 295 294
285 284 283 282 282 282 282 282 282 281 281 280 278 277 276 275 274 273 273 272 273 273 274 275 276 276 276 278 280 282 284 285 285 286 286 286 286 286 288 295 295 295 295
284 283 282 282 282 282 281 281 281 280 279 278 276 274 273 272 272 270 271 272 272 273 273 273 274 274 275 275 276 277 280 282 284 286 286 286 287 286 287 288 294 294 294
283 282 282 282 281 281 280 280 279 278 277 276 273 272 271 271 271 271 273 273 273 273 273 273 274 275 275 276 277 278 278 279 280 283 283 286 286 287 287 286 288 293 293
282 281 281 281 280 280 279 278 277 276 274 272 272 272 271 271 272 273 273 273 273 273 273 274 274 275 275 275 275 275 275 276 278 280 284 286 286 286 287 287 287 287 292

GFSMA_850_thetae_030.txt.gz
Theta_e
327 328 328 328 326 324 323 323 324 323 322 322 322 321 318 307 302 302 303 303 304 305 305 305 305 306 307 309 310 312 316 317 316 313 308 307 308 309 306 308 308 306 306
327 326 327 328 327 325 324 323 325 322 321 322 322 321 320 318 312 305 302 302 303 303 304 304 305 305 306 313 320 320 317 319 319 318 311 310 308 307 308 308 311 309 307
325 325 326 329 327 327 325 325 324 323 321 321 320 319 319 319 318 317 310 306 302 302 302 303 303 304 304 304 310 319 317 319 319 318 315 310 309 306 308 309 309 307 306
326 326 326 325 325 326 327 325 324 323 324 321 320 319 319 319 318 318 317 316 309 305 302 301 302 303 303 303 303 306 316 318 318 317 316 314 313 309 305 308 310 308 306
323 323 322 322 322 323 323 323 322 322 322 321 321 320 319 318 317 317 316 316 316 314 309 306 301 301 301 302 302 303 303 307 317 319 317 315 315 310 306 304 305 304 304
319 319 319 319 318 318 318 318 318 318 317 316 316 316 315 314 314 313 313 312 312 312 312 310 308 304 300 300 301 301 302 302 305 319 318 314 314 313 312 305 302 304 301
316 316 317 316 316 315 315 315 315 315 313 312 311 309 308 309 310 310 309 307 303 304 304 303 302 303 303 301 300 300 300 301 303 315 315 317 316 316 313 312 303 300 300
310 310 310 310 310 309 309 310 309 308 307 306 305 306 308 307 307 306 306 307 307 307 306 306 306 306 303 301 300 299 299 300 300 304 313 314 315 315 316 314 312 304 301
303 303 303 303 302 302 302 301 301 301 301 301 301 302 304 305 302 303 302 303 303 301 301 302 303 304 306 307 305 300 299 299 299 299 299 305 310 311 312 313 313 312 301
300 300 299 298 298 297 297 295 294 294 292 293 293 294 296 297 299 299 299 295 293 291 293 294 295 298 300 302 305 306 306 303 300 298 298 299 298 300 306 309 311 311 309
296 295 295 293 293 293 292 291 291 290 290 290 289 289 289 290 292 290 292 290 290 290 290 290 292 292 293 295 299 300 304 305 306 303 299 298 298 298 298 299 305 313 311
294 293 293 292 291 291 290 290 289 289 288 288 287 287 287 286 287 287 288 288 288 288 288 289 289 290 291 291 291 293 297 299 302 304 305 303 299 298 298 298 298 305 311
293 293 292 291 291 290 289 289 288 288 287 287 287 286 286 286 286 286 285 286 286 287 287 287 288 288 289 290 290 291 290 290 293 297 300 303 303 300 298 298 297 299 307
293 292 291 290 289 289 289 288 288 287 287 287 286 286 286 286 286 285 285 285 285 286 286 287 287 288 287 288 288 289 289 290 290 289 292 297 300 303 300 298 298 297 301
291 290 290 289 289 289 288 288 287 287 286 286 286 286 286 286 285 285 285 284 284 285 285 286 286 286 286 286 286 287 288 289 289 289 289 289 293 298 301 300 297 297 301
289 289 289 288 288 287 287 286 286 286 285 285 285 285 285 285 285 285 285 284 283 283 283 284 285 285 286 286 286 286 287 287 288 289 289 289 289 290 296 299 300 296 297
288 288 288 287 287 287 286 286 285 285 285 285 285 285 285 284 284 284 284 284 283 282 282 283 283 283 285 286 286 285 286 286 287 287 288 288 288 288 289 292 298 299 296
288 288 288 288 287 287 286 285 284 284 284 284 284 284 284 284 284 283 283 283 282 281 280 281 282 281 281 283 285 286 284 284 284 286 287 287 287 287 288 289 290 296 298
288 288 288 288 288 287 286 285 284 283 283 283 283 283 283 283 283 282 282 281 281 280 279 279 280 279 279 280 281 282 284 284 283 284 285 286 287 287 287 287 288 289 293
288 288 288 288 288 287 286 284 283 283 283 283 283 283 282 282 282 281 281 280 279 278 277 277 277 278 278 278 278 279 280 282 283 283 284 284 285 286 287 287 287 287 288
288 288 288 288 287 287 286 283 282 282 282 282 282 282 282 282 281 281 279 278 276 275 275 275 275 276 277 277 277 277 277 278 280 279 280 282 285 286 287 286 286 287 287
288 287 287 287 287 287 285 283 282 282 282 282 282 281 281 281 280 279 278 276 274 274 274 274 274 275 276 276 276 276 276 276 276 278 278 279 279 283 284 286 286 286 287
287 287 287 286 286 286 285 283 282 282 281 281 281 281 280 279 278 277 276 274 273 273 274 274 274 274 275 275 275 275 276 276 276 277 277 277 278 279 280 281 282 285 286
287 286 286 286 286 285 284 282 281 281 281 281 280 280 280 279 277 276 274 274 274 274 274 274 274 275 275 275 276 277 277 277 277 277 277 277 278 278 278 278 280 281 283
286 286 286 286 285 285 282 281 281 281 280 280 280 280 279 278 276 274 275 275 275 275 276 276 276 276 277 277 277 278 278 277 278 277 277 277 277 277 277 277 277 280 281
285 285 286 286 285 284 282 280 280 280 279 279 279 279 277 274 274 274 275 275 276 277 277 277 277 277 276 276 276 276 276 276 276 276 277 277 277 276 276 277 280 281 282

GFSMA_850_thetae_033.txt.gz
Theta_e
329 328 329 328 329 326 325 323 322 322 323 322 321 322 321 320 317 307 303 302 303 303 304 304 304 305 309 314 316 316 316 318 317 317 312 309 308 307 308 307 308 307 306
327 326 326 328 328 327 325 324 324 324 322 321 321 321 319 319 320 319 317 312 305 302 302 303 304 304 304 307 313 319 320 317 319 319 318 313 309 308 306 307 309 308 307
325 325 325 325 326 328 325 325 326 325 324 322 321 320 319 319 319 319 318 318 317 315 307 302 302 303 303 303 305 312 318 319 318 319 317 315 314 312 310 306 307 309 307
324 324 325 324 324 325 325 324 324 323 324 323 322 321 321 320 319 318 317 317 316 315 316 311 306 302 301 302 303 303 307 312 316 317 318 319 316 312 310 307 305 308 307
323 322 322 322 322 322 322 322 322 321 320 320 319 319 319 318 317 316 315 314 314 313 312 313 311 308 304 301 301 301 302 303 310 314 316 320 317 315 313 310 310 304 303
319 319 318 317 317 317 316 316 316 315 315 314 314 312 312 311 311 311 309 309 307 305 305 305 305 304 304 303 301 300 300 301 301 304 311 318 318 316 315 316 313 311 302
316 317 316 315 313 312 312 312 312 312 310 308 306 306 309 308 307 305 306 305 305 305 306 306 306 306 306 306 302 300 299 299 300 300 306 317 317 318 316 317 314 314 311
310 308 307 306 305 305 304 304 303 303 302 302 302 306 309 307 306 303 303 302 302 302 296 296 297 297 299 303 306 306 302 299 299 299 299 306 315 315 316 316 316 314 313
303 303 302 302 301 300 300 299 298 297 295 295 295 297 303 304 297 303 301 298 295 295 293 293 293 292 293 293 297 301 304 306 304 300 299 299 300 311 313 313 312 314 314
300 299 299 298 297 297 296 296 295 294 293 292 292 291 290 293 296 294 295 293 291 290 290 292 292 292 292 292 292 294 298 300 303 304 304 301 298 298 299 301 307 310 312
297 297 296 295 295 294 293 292 292 292 291 290 290 289 289 289 291 289 289 289 289 288 289 288 290 290 291 291 291 291 291 291 291 295 299 303 304 301 298 298 298 298 302
295 295 294 293 293 292 292 291 290 289 289 288 288 287 287 286 286 286 286 286 286 287 287 288 287 288 288 289 289 289 291 291 290 290 290 292 297 301 303 301 298 298 298
294 294 293 292 292 292 291 290 289 288 288 287 287 286 286 286 286 285 285 285 285 286 287 287 287 287 287 287 287 288 288 289 289 289 290 290 290 291 296 301 303 299 298
294 293 292 292 291 290 290 289 289 288 287 287 286 286 286 286 285 285 285 284 285 285 286 286 286 286 286 286 285 285 286 287 288 288 289 289 289 290 290 291 297 302 300
292 292 291 291 290 290 289 289 289 288 287 287 286 286 286 285 285 285 285 284 284 284 284 285 285 285 285 285 285 285 285 286 286 287 287 288 288 289 289 290 290 294 300
291 290 290 290 289 289 288 288 287 287 286 286 285 285 285 285 284 284 284 284 283 283 283 284 284 284 284 285 285 285 285 285 285 285 286 287 287 288 288 288 289 289 291
290 290 289 289 288 288 288 288 287 286 285 285 284 284 284 284 284 284 284 283 283 282 282 284 283 283 283 283 284 284 284 284 284 283 283 285 286 287 287 288 288 288 289
289 289 289 288 288 288 288 288 287 286 285 284 284 284 284 283 283 283 283 283 282 282 280 281 282 281 280 281 282 282 283 283 283 283 283 285 285 287 287 287 287 288 288
289 289 288 288 288 288 288 288 288 287 285 283 283 283 283 283 283 282 282 282 281 281 280 279 281 279 279 278 278 279 280 281 281 282 282 282 283 284 285 285 286 287 287
288 288 288 288 288 288 288 288 287 286 285 283 283 283 283 282 282 282 281 281 280 280 279 278 279 278 277 277 277 277 277 278 278 279 280 280 280 281 283 285 286 287 287
288 288 288 288 288 288 288 287 287 286 284 282 282 282 282 282 282 281 281 280 279 278 277 276 276 276 275 275 276 276 276 276 276 277 277 278 279 279 280 281 285 286 287
288 288 288 287 287 287 287 287 286 284 283 282 282 282 281 281 281 281 280 279 277 276 275 275 275 275 275 275 275 275 276 276 276 277 277 277 277 278 279 280 280 281 282
288 287 287 287 287 287 286 286 285 284 283 282 281 281 281 281 280 280 279 278 276 275 275 276 275 275 276 276 276 276 276 276 277 277 277 278 278 278 278 278 279 280 280
287 287 287 286 286 286 286 285 284 283 282 281 281 281 280 280 279 278 277 276 276 275 275 276 276 276 276 277 277 277 278 278 278 278 278 278 278 278 278 278 278 279 279
287 287 286 286 286 286 286 285 284 283 281 281 280 280 279 279 278 275 276 276 276 276 276 277 277 276 277 277 277 277 277 277 277 277 277 277 277 277 277 277 277 278 279
286 286 286 286 285 286 285 284 284 282 281 280 280 279 278 277 276 276 276 276 276 275 275 275 275 275 275 275 275 275 275 276 276 277 277 277 276 276 276 276 279 278 278